Simultaneous Nadir Overpasses (SNOs) Predictions

Prediction of SNOs between METOP-C and LANDSAT-8 Satellite Orbit:

Table of predicted SNOs for the next 14.0 days since TLE Epoch: 9/26/2020
Index Date (METOP-C) Time (METOP-C) Lat,Lon (METOP-C) SZA (METOP-C ) Date (LANDSAT-8) Time (LANDSAT-8) Lat,Lon (LANDSAT-8) SZA (LANDSAT-8 ) Distance(km) Time Diff (sec)
1 09/27/2020 15:57:24 81.14, -19.24 85.42 09/27/2020 15:58:29 81.15, -19.26 85.45 0.39 65
2 09/27/2020 16:48:04 -81.16, 148.64 94.50 09/27/2020 16:47:55 -81.17, 148.69 94.50 0.97 9
3 09/30/2020 11:31:44 81.14, 46.98 86.51 09/30/2020 11:32:44 81.14, 47.09 86.54 1.79 60
4 09/30/2020 12:22:24 -81.16,-145.08 93.41 09/30/2020 12:22:10 -81.16,-144.94 93.40 2.47 14
5 10/03/2020 07:06:05 81.13, 113.20 87.59 10/03/2020 07:07:00 81.13, 113.40 87.63 3.28 55
6 10/03/2020 07:56:43 -81.18, -78.06 92.22 10/03/2020 07:56:25 -81.18, -78.24 92.25 3.13 18
7 10/06/2020 02:40:24 81.15,-179.82 88.76 10/06/2020 02:41:15 81.14,-179.97 88.76 2.51 51
8 10/06/2020 03:31:04 -81.17, -11.80 91.14 10/06/2020 03:30:41 -81.17, -11.95 91.17 2.57 23
9 10/08/2020 22:14:43 81.16,-113.23 89.87 10/08/2020 22:15:29 81.15,-113.36 89.88 2.23 46
